TimeEST,TemperatureF,Dew PointF,Humidity,Sea Level PressureIn,VisibilityMPH,Wind Direction,Wind SpeedMPH,Gust SpeedMPH,PrecipitationIn,Events,Conditions,WindDirDegrees,DateUTC
12:52 AM,27.0,12.0,53,30.24,10.0,WNW,8.1,-,N/A,,Clear,290,2012-12-06 05:52:00
1:52 AM,26.1,12.0,55,30.26,10.0,West,10.4,19.6,N/A,,Clear,280,2012-12-06 06:52:00
2:52 AM,26.1,10.9,53,30.28,10.0,WNW,9.2,-,N/A,,Partly Cloudy,290,2012-12-06 07:52:00
3:52 AM,26.1,12.0,55,30.30,10.0,West,8.1,-,N/A,,Overcast,260,2012-12-06 08:52:00
4:52 AM,25.0,12.9,60,30.31,10.0,WSW,5.8,-,N/A,,Overcast,240,2012-12-06 09:52:00
5:52 AM,25.0,12.9,60,30.33,10.0,West,8.1,-,N/A,,Overcast,260,2012-12-06 10:52:00
6:21 AM,24.8,12.2,59,30.32,10.0,WSW,6.9,-,N/A,,Overcast,250,2012-12-06 11:21:00
6:52 AM,24.1,12.9,62,30.36,10.0,WSW,8.1,-,N/A,,Overcast,240,2012-12-06 11:52:00
7:52 AM,24.1,12.9,62,30.38,10.0,West,9.2,-,N/A,,Mostly Cloudy,260,2012-12-06 12:52:00
7:59 AM,24.8,12.2,59,30.35,10.0,West,8.1,-,N/A,,Partly Cloudy,260,2012-12-06 12:59:00
8:52 AM,27.0,12.9,56,30.38,10.0,Variable,6.9,-,N/A,,Clear,0,2012-12-06 13:52:00
9:52 AM,27.0,12.9,56,30.39,10.0,West,9.2,16.1,N/A,,Clear,270,2012-12-06 14:52:00
10:52 AM,28.9,14.0,54,30.35,10.0,West,6.9,-,N/A,,Clear,260,2012-12-06 15:52:00
11:52 AM,32.0,14.0,48,30.33,10.0,WNW,5.8,-,N/A,,Clear,290,2012-12-06 16:52:00
12:52 PM,34.0,15.1,46,30.32,10.0,Variable,5.8,-,N/A,,Clear,0,2012-12-06 17:52:00
1:52 PM,36.0,15.1,43,30.31,10.0,Variable,4.6,-,N/A,,Clear,0,2012-12-06 18:52:00
2:52 PM,35.1,15.1,44,30.30,10.0,Calm,Calm,-,N/A,,Clear,0,2012-12-06 19:52:00
3:52 PM,30.9,16.0,54,30.30,10.0,Calm,Calm,-,N/A,,Clear,0,2012-12-06 20:52:00
4:52 PM,27.0,16.0,63,30.30,10.0,Calm,Calm,-,N/A,,Clear,0,2012-12-06 21:52:00
5:52 PM,24.1,18.0,77,30.30,10.0,Calm,Calm,-,N/A,,Clear,0,2012-12-06 22:52:00
6:52 PM,23.0,17.1,78,30.31,10.0,Calm,Calm,-,N/A,,Clear,0,2012-12-06 23:52:00
7:52 PM,21.9,18.0,85,30.30,10.0,Calm,Calm,-,N/A,,Clear,0,2012-12-07 00:52:00
8:52 PM,21.0,16.0,81,30.31,10.0,Calm,Calm,-,N/A,,Clear,0,2012-12-07 01:52:00
9:52 PM,24.1,17.1,75,30.29,10.0,Calm,Calm,-,N/A,,Clear,0,2012-12-07 02:52:00
10:52 PM,23.0,16.0,74,30.28,10.0,SE,5.8,-,N/A,,Clear,130,2012-12-07 03:52:00
11:52 PM,26.1,17.1,69,30.26,10.0,ESE,6.9,-,N/A,,Clear,110,2012-12-07 04:52:00